Theta_e
299 300 303 304 303 301 301 302 302 303 304 307 311 315 319 323 325 323 325 327 328 327 324 321 320 319 319 319 319 320 320 321 322 322 322 322 323 324 324 324 326 327 328 329 331 333 330 325 323 324 324 323 323 325 323 322 323 323 325 326 327 326 322 315 312 318 324 326 325 324 323 323 321 323 326 326 326 325 321 320 319 314 312 312 310 313 320
301 302 303 303 302 301 300 301 302 303 305 308 311 316 318 320 323 323 324 326 326 327 325 322 321 320 320 320 319 319 320 321 322 322 322 323 323 324 324 324 324 324 325 329 331 332 329 325 325 327 326 323 325 324 322 323 323 321 326 329 326 323 321 317 313 315 319 321 322 324 325 324 321 324 330 329 328 330 327 323 321 316 313 312 311 313 320
302 303 304 303 302 301 300 301 302 303 305 308 312 317 319 321 324 322 323 326 327 327 325 323 323 322 320 320 319 319 320 321 323 322 322 322 323 324 324 323 323 323 324 328 329 329 328 326 327 328 326 324 324 324 323 324 321 325 337 338 326 322 324 322 315 313 316 317 317 319 322 323 325 329 331 329 328 329 325 320 316 316 316 315 314 314 320
303 304 304 303 303 302 301 301 302 304 305 308 312 317 320 324 327 323 321 323 325 326 325 324 325 325 324 322 320 321 323 322 322 321 321 322 322 324 324 323 324 324 325 328 329 328 327 328 327 327 327 326 325 326 324 321 325 336 343 337 326 326 327 325 319 317 317 318 319 325 326 323 323 327 329 328 329 330 327 319 315 318 318 316 318 320 320
304 305 304 304 304 302 302 301 302 304 305 308 313 318 321 324 326 325 326 326 323 323 324 324 325 327 328 326 323 322 323 323 322 321 320 321 322 323 323 323 325 326 328 330 329 328 327 328 327 326 327 327 326 326 323 324 335 342 335 325 326 326 323 324 325 322 322 323 324 329 329 324 323 324 326 329 331 331 326 320 320 323 319 315 323 327 320
305 305 304 305 305 303 302 302 303 304 305 309 315 319 320 322 324 325 326 327 326 325 324 324 325 326 327 328 326 323 322 323 323 322 320 319 321 323 323 323 324 326 328 329 329 329 328 327 329 327 326 329 330 328 323 326 335 337 325 323 329 325 320 324 326 324 326 327 326 327 328 327 326 325 325 328 330 330 327 324 326 326 320 318 325 328 324
305 305 305 305 305 304 303 303 303 304 305 310 315 315 314 317 321 322 323 325 328 329 328 328 329 328 327 328 328 327 325 324 323 323 322 321 320 320 322 323 323 324 327 329 330 330 327 326 329 329 328 330 332 331 329 326 328 329 323 326 332 325 321 325 325 323 325 327 325 326 325 323 324 324 326 329 330 331 330 329 331 329 325 325 329 328 327
304 304 304 305 305 305 304 303 304 304 305 311 315 313 312 314 317 320 322 324 327 328 329 330 330 330 329 328 327 328 327 327 326 325 325 326 324 321 322 322 322 323 325 325 330 334 332 332 333 332 332 333 331 331 331 328 326 327 325 329 334 326 322 327 327 321 321 324 325 325 324 322 321 323 328 330 330 331 331 331 331 329 328 330 330 326 326
304 304 304 305 305 305 304 304 306 305 307 314 318 314 312 314 315 319 322 324 326 327 327 329 330 331 330 329 328 328 327 328 328 328 328 328 328 325 323 325 328 328 326 328 333 337 337 336 334 332 333 335 332 331 331 329 328 329 327 329 333 329 325 327 325 318 316 321 324 324 324 323 321 322 327 330 329 330 330 329 330 330 328 329 326 322 325
303 304 304 305 305 305 304 304 306 307 309 314 318 316 313 314 316 319 322 323 324 324 324 326 329 330 328 329 330 329 328 327 328 330 330 328 328 327 326 330 333 333 332 333 336 337 335 335 335 331 332 332 331 329 328 327 329 333 332 330 332 332 327 323 321 315 314 319 324 324 323 321 318 321 327 329 330 332 331 330 332 332 331 328 323 323 329
302 303 304 305 305 305 305 304 305 307 309 312 315 316 314 314 316 318 320 321 321 322 323 324 326 328 327 327 328 328 328 329 329 330 330 328 329 330 329 331 332 332 333 333 333 333 332 333 332 331 330 330 329 327 326 325 327 330 332 332 332 331 328 325 322 316 313 318 323 324 320 317 319 326 331 331 330 331 331 331 333 334 334 331 328 329 333
300 301 302 304 304 305 305 304 304 305 308 311 314 315 313 312 315 316 317 319 321 321 321 323 324 326 326 325 326 326 327 328 329 329 330 330 332 332 331 331 332 332 332 330 330 331 332 332 330 329 329 328 327 326 326 326 326 326 328 330 332 331 328 326 324 318 315 317 320 319 318 319 324 329 330 329 328 329 330 331 333 334 336 336 333 332 333
298 300 301 302 303 304 305 305 304 304 306 310 314 315 312 310 312 314 315 319 321 319 319 321 321 322 323 323 324 325 325 326 326 327 328 329 330 330 330 330 332 331 329 328 329 331 333 333 331 329 329 328 327 327 326 325 325 326 326 326 329 331 329 325 323 320 318 316 316 317 321 325 329 332 329 326 327 328 327 326 329 333 335 336 333 331 331
297 298 299 301 303 304 304 305 304 304 305 308 313 315 313 310 311 313 314 317 319 318 317 318 318 318 320 321 322 323 324 325 326 327 328 329 329 329 328 328 329 329 327 328 329 331 333 333 330 328 328 327 326 326 326 326 325 326 327 325 326 329 329 326 322 320 318 314 312 317 320 321 326 330 330 328 327 328 328 325 327 333 334 333 333 332 332
296 297 298 299 301 303 304 305 305 304 304 307 312 315 313 309 309 313 314 315 317 317 315 315 315 315 316 319 320 323 324 325 326 326 327 327 328 328 327 326 327 326 326 328 330 330 331 330 325 323 322 322 321 322 324 326 326 326 328 326 325 326 328 328 323 319 318 315 313 316 316 315 321 328 331 331 327 329 331 326 325 331 332 330 333 333 332
296 296 297 298 300 302 303 304 305 304 304 305 309 314 314 310 309 313 316 314 314 316 314 313 313 314 315 317 318 320 321 322 323 324 325 327 328 328 325 325 325 324 325 328 329 330 330 328 325 322 321 321 320 320 322 323 324 326 328 327 326 327 328 329 324 319 318 316 315 316 315 316 324 331 331 329 327 329 330 322 320 328 332 329 330 332 331
296 296 297 298 299 299 301 303 305 305 304 304 307 311 314 310 308 312 316 314 312 313 311 310 312 314 314 314 314 316 318 319 320 321 323 325 326 325 322 322 324 324 324 327 329 330 329 328 326 323 323 325 323 320 321 321 319 323 327 326 325 327 328 327 322 318 318 317 316 317 317 319 328 333 329 327 329 330 326 317 317 329 334 330 329 330 330
297 296 296 297 298 298 298 301 304 305 304 303 304 309 313 310 307 310 314 314 311 311 308 307 310 313 312 311 311 313 314 316 317 318 320 322 322 320 319 320 323 324 324 327 329 329 329 328 327 324 324 327 326 322 322 322 319 322 327 327 327 327 327 325 322 318 317 317 316 316 318 324 330 330 329 330 331 327 320 318 325 335 337 334 333 332 331
298 297 296 297 297 298 298 300 302 304 304 303 304 309 313 312 309 309 311 313 312 310 308 308 309 310 310 310 310 310 311 313 315 315 318 320 319 316 317 321 322 323 325 327 328 329 329 328 330 328 325 325 326 325 324 324 323 324 327 328 326 325 324 323 322 321 319 319 319 317 319 328 333 330 331 332 328 323 321 327 335 337 333 333 335 334 331
298 298 297 296 297 298 298 299 301 303 304 303 305 309 312 312 311 310 310 310 310 309 309 308 307 307 307 308 308 308 309 311 312 312 314 316 315 315 319 323 323 323 326 329 330 331 329 328 331 330 326 326 331 332 328 327 327 326 329 330 328 327 325 321 321 322 321 319 320 318 320 330 334 330 330 330 327 328 331 334 334 332 331 332 333 335 336
297 298 298 297 296 297 298 299 299 301 302 303 304 308 311 310 310 310 309 309 309 309 309 308 307 307 306 307 308 308 308 310 310 310 311 312 313 315 318 320 320 322 326 329 331 332 331 331 332 331 328 330 334 333 330 329 330 328 331 334 333 332 328 323 322 326 325 322 322 324 328 334 335 333 333 333 333 338 339 336 332 331 332 330 328 334 340
296 298 298 297 297 297 297 298 298 299 301 301 303 307 309 308 308 309 308 308 310 310 310 310 309 309 309 309 308 307 308 309 309 309 309 311 312 314 316 317 319 321 323 326 328 330 331 331 331 331 331 331 332 332 332 330 329 329 332 334 333 334 333 331 331 333 330 329 331 333 333 334 334 334 336 337 337 338 338 337 334 333 332 331 330 334 338
296 297 298 298 297 297 296 297 297 298 299 300 302 306 308 308 308 309 308 308 310 310 311 311 310 309 309 309 309 308 308 309 309 309 310 311 311 312 315 316 316 318 320 322 323 325 326 327 328 330 331 331 331 333 332 330 329 330 333 333 333 333 336 339 340 338 333 331 334 335 334 334 332 332 333 334 333 334 335 336 336 333 334 334 334 335 336
295 296 297 298 298 297 297 297 297 297 298 298 300 304 307 308 309 308 307 308 310 309 309 308 308 307 308 308 308 308 307 307 307 308 309 311 311 312 313 314 313 314 317 318 318 320 321 321 324 327 329 330 331 332 332 331 331 331 331 332 332 332 334 337 340 337 333 331 333 335 335 335 334 331 331 331 330 330 331 333 335 335 335 334 334 335 334
293 295 296 297 298 298 297 297 297 297 298 298 299 302 306 309 308 307 307 308 309 308 308 308 308 308 308 307 307 307 306 306 306 306 307 308 310 311 312 311 311 312 314 315 316 317 318 318 321 324 327 328 329 330 331 331 331 331 330 331 332 333 333 333 334 334 333 333 333 335 334 333 332 331 331 331 331 330 331 331 333 335 334 333 333 333 333
291 293 294 295 297 297 297 298 297 297 297 297 298 301 305 308 308 307 307 308 308 308 308 308 308 308 309 308 307 306 305 306 306 305 305 305 307 308 309 309 310 311 313 313 315 315 316 316 318 321 323 325 326 327 329 329 330 331 331 331 332 333 332 331 331 332 332 333 333 333 333 331 331 331 331 330 330 330 330 330 330 331 332 332 332 331 331
290 291 292 293 295 296 297 297 297 297 297 296 297 300 305 307 307 307 307 307 308 309 308 308 308 309 308 307 306 306 305 306 306 305 305 305 305 306 307 308 309 310 311 312 314 314 314 315 317 319 321 323 324 325 326 327 327 329 330 330 331 331 332 332 332 331 331 332 333 334 336 336 334 331 330 329 328 328 328 328 328 329 330 330 330 330 330
290 290 290 291 293 294 296 297 297 297 297 296 298 302 305 306 307 307 307 307 308 308 307 307 307 307 307 307 307 307 307 307 306 306 306 306 306 306 307 307 308 309 310 311 312 313 313 314 315 317 318 320 322 324 324 324 326 327 328 328 329 331 332 332 331 331 331 332 331 332 335 337 334 331 329 328 327 327 327 327 327 327 326 326 327 327 327
289 289 290 290 291 292 294 296 297 297 296 297 302 305 306 307 308 308 307 308 307 307 306 306 306 306 307 307 307 307 307 306 306 307 307 307 307 307 307 307 307 308 309 309 309 311 312 313 313 315 316 318 321 322 323 323 324 325 326 326 328 329 330 329 329 330 330 329 327 327 329 331 330 329 327 327 326 326 326 325 326 325 324 324 324 324 323
290 289 289 289 290 291 292 295 297 297 297 299 304 306 305 307 308 307 305 306 306 306 305 305 305 306 306 306 306 306 306 305 305 306 307 308 308 308 308 307 307 307 308 308 308 309 311 311 312 313 315 316 317 319 320 322 323 323 323 325 326 326 326 326 326 327 326 324 323 323 323 324 324 324 324 324 324 324 324 324 326 326 324 323 322 323 323
290 290 289 289 289 290 291 293 295 296 297 301 305 305 305 307 308 305 303 303 305 307 306 305 305 305 305 306 306 306 306 306 306 306 307 308 307 308 308 308 307 307 307 307 308 308 309 310 312 313 314 315 317 318 319 320 321 322 322 323 324 324 325 324 324 323 322 320 319 319 319 320 320 321 322 323 324 323 323 325 326 327 326 324 322 322 324
291 289 289 289 289 289 290 292 294 296 298 300 302 302 303 304 304 302 301 303 306 307 306 305 305 305 305 305 306 306 307 307 306 306 306 306 306 307 307 308 308 308 307 306 306 308 309 310 311 312 313 315 316 317 318 319 320 320 320 320 320 320 321 323 322 321 320 319 318 318 319 318 319 320 321 321 321 321 321 323 324 325 324 323 322 321 322
291 289 288 288 289 289 289 291 293 295 296 298 299 301 302 302 302 302 302 304 307 307 306 306 306 305 305 305 305 305 306 306 306 306 306 307 307 308 308 309 309 308 308 306 306 307 309 310 310 311 312 313 314 315 317 318 318 319 318 318 319 318 318 320 320 319 319 319 318 318 318 318 317 318 318 318 319 320 320 320 321 321 321 320 320 319 320
291 288 288 288 288 289 289 291 293 295 298 300 302 304 304 303 303 303 302 304 306 305 304 305 304 304 304 304 304 305 306 306 306 306 306 307 309 309 309 310 310 310 309 308 307 308 308 309 310 311 311 311 312 313 315 316 316 317 317 317 317 317 317 317 317 317 317 317 317 317 317 316 316 317 317 318 319 319 320 320 319 319 319 319 320 320 320
290 288 288 288 289 290 292 294 296 299 301 303 304 305 303 302 302 302 302 304 305 303 303 303 303 303 305 305 305 306 306 306 306 306 306 307 309 310 309 309 309 310 310 309 309 309 309 309 311 312 312 312 312 312 313 313 313 314 315 316 316 316 316 316 316 316 316 315 316 316 315 315 316 317 317 318 318 318 318 318 317 318 319 319 319 320 319
289 288 288 289 291 295 298 299 300 302 303 303 303 302 300 299 300 302 303 305 305 304 304 304 304 304 305 304 305 307 306 306 307 306 306 306 307 308 308 308 308 309 310 311 311 312 311 311 312 313 313 314 314 313 312 312 312 313 313 314 315 314 315 315 315 315 314 314 315 315 314 315 316 316 315 316 316 316 317 317 317 318 318 319 319 319 319
289 289 290 293 297 299 301 302 303 302 301 300 300 299 299 299 300 301 303 305 305 305 305 305 304 305 305 304 305 306 305 306 306 306 306 306 306 307 307 307 307 308 309 310 311 311 312 312 312 312 313 313 314 314 313 313 313 313 313 313 314 313 314 314 314 314 314 314 314 314 314 314 315 315 314 315 315 315 316 316 316 316 317 317 319 320 321
292 292 294 298 300 299 299 302 302 300 299 299 300 300 302 302 302 302 303 304 304 304 305 304 304 304 304 304 305 305 305 306 306 305 305 306 306 306 306 306 307 307 308 308 309 310 310 311 311 312 312 313 312 313 313 313 313 313 314 314 314 313 313 313 313 314 314 314 314 314 314 314 315 314 314 314 314 314 315 315 315 316 318 318 319 321 321
295 296 298 300 299 298 300 301 300 299 299 300 301 301 302 302 302 302 302 303 303 304 304 304 304 304 304 304 305 305 305 306 305 305 305 306 306 306 305 305 306 307 307 307 308 309 310 310 311 311 311 311 311 312 312 312 312 313 313 313 313 314 313 313 314 314 314 314 315 315 315 315 315 314 313 313 314 314 316 316 315 317 320 320 320 320 321
297 298 299 298 298 298 299 299 298 298 300 301 301 301 301 301 301 302 302 302 302 303 303 304 304 305 305 304 305 305 305 306 305 305 305 305 305 305 305 305 306 306 307 307 308 308 308 309 310 310 310 310 311 311 311 311 311 312 312 312 313 314 314 314 314 315 314 314 315 315 315 315 315 315 315 315 315 316 317 318 318 319 320 320 320 320 320
297 297 297 297 296 296 296 297 297 299 299 299 299 300 300 300 301 301 301 302 302 302 303 303 303 304 304 304 304 305 305 306 306 306 306 305 306 305 305 305 305 305 306 307 308 308 308 308 308 309 309 310 311 311 311 312 312 312 312 313 314 314 315 314 314 315 315 315 315 315 316 316 317 317 317 316 315 316 318 319 319 319 319 319 319 319 318
296 296 296 296 296 296 296 297 298 298 298 299 299 299 299 300 300 300 301 301 302 302 302 303 303 304 304 305 305 305 305 306 306 306 305 305 306 305 304 305 305 305 305 306 306 307 308 309 309 309 309 310 311 311 311 312 312 312 313 314 314 314 314 314 314 314 315 315 315 316 317 317 318 318 317 317 316 317 318 319 319 318 317 316 315 316 316
295 295 296 296 296 295 295 296 297 297 298 298 299 300 299 299 300 300 300 301 302 302 302 303 303 304 304 305 305 305 306 306 305 305 305 305 305 304 304 304 304 304 305 306 306 306 306 307 308 309 309 310 311 311 311 312 313 312 313 314 315 315 315 314 314 314 315 315 316 316 316 317 317 317 316 317 317 317 318 317 317 317 316 314 313 313 313
296 297 296 295 294 295 295 296 297 298 298 298 299 300 299 299 300 300 300 301 302 302 302 303 303 303 304 304 304 305 306 305 305 305 305 305 305 305 304 303 304 304 305 305 305 305 306 306 307 307 308 309 310 310 311 312 312 313 313 314 315 315 316 315 314 314 314 314 315 315 315 315 316 316 316 316 317 317 317 316 315 314 314 313 312 312 312
296 296 295 294 293 294 295 296 297 298 299 299 299 299 299 300 300 300 300 301 302 302 302 302 303 303 303 304 304 304 304 304 305 305 305 305 305 304 304 303 304 304 305 305 305 305 306 306 306 307 308 308 309 310 311 312 312 313 313 313 314 314 314 314 314 313 313 313 314 314 314 314 315 315 315 315 315 315 315 314 313 313 312 311 311 311 311
296 295 295 294 294 294 294 295 297 298 298 299 299 299 300 300 300 301 301 302 301 301 301 302 302 302 303 303 303 304 304 304 304 304 304 304 304 304 304 304 304 304 304 305 306 306 305 306 306 307 308 309 308 309 311 312 312 312 313 313 314 314 314 314 314 314 314 314 314 314 314 313 314 315 315 315 314 313 313 313 312 311 311 310 310 310 309
296 295 294 294 294 294 294 294 295 297 297 298 298 299 300 300 300 301 301 301 302 302 302 302 303 303 303 303 303 304 304 303 304 304 304 304 304 304 304 304 304 304 305 305 306 305 306 306 306 307 308 308 308 309 310 312 312 313 314 313 313 313 314 314 314 314 315 314 314 314 314 313 313 313 314 314 314 313 312 312 311 311 310 310 310 309 309
295 295 295 294 294 294 294 295 295 296 296 297 297 297 298 299 299 300 301 302 302 303 303 303 303 304 303 303 303 303 303 304 304 304 304 304 304 304 305 305 305 305 305 305 305 305 305 306 307 307 308 310 311 311 311 312 312 313 313 313 313 313 313 313 313 314 315 314 314 313 313 312 312 312 313 313 313 313 312 312 311 311 310 310 310 309 309
295 295 295 294 294 294 294 295 295 295 296 296 297 297 298 298 298 299 300 301 301 301 301 302 302 303 303 303 303 303 303 304 304 304 304 304 304 304 305 305 305 306 305 305 305 306 307 308 308 308 308 309 310 311 312 312 312 312 312 312 312 313 313 313 314 314 314 314 313 313 312 311 311 311 311 312 312 312 312 312 312 311 311 310 310 310 310
295 295 295 295 294 294 295 295 295 295 296 296 296 297 298 298 299 300 301 301 301 301 301 301 301 302 302 302 302 302 303 303 303 304 305 305 305 305 305 306 306 306 306 306 306 307 308 309 309 309 310 311 311 311 311 311 311 312 313 313 313 313 313 313 313 313 313 313 313 313 312 312 311 311 311 311 311 311 312 312 312 312 311 310 310 310 310
295 295 295 295 295 295 295 295 295 295 296 296 296 297 298 298 298 300 301 301 300 301 301 300 301 301 302 302 302 302 302 302 303 304 305 305 305 305 305 306 306 306 306 307 308 309 309 309 309 309 311 312 313 313 313 313 312 312 313 313 312 312 312 312 312 312 313 313 312 312 312 312 312 312 311 311 311 311 311 312 312 311 311 311 310 310 310
295 295 295 295 295 295 295 295 295 295 295 295 295 296 297 297 298 300 301 301 300 300 300 300 300 301 301 302 302 302 302 302 302 303 303 304 304 305 305 305 306 307 308 308 308 309 309 310 310 310 311 311 312 312 312 312 312 312 312 312 312 312 312 312 312 312 312 312 312 312 312 312 312 312 312 312 312 311 311 311 311 311 311 310 310 310 310
Wind_Speed
24 24 24 25 26 26 28 29 31 35 35 30 24 17 8 6 5 2 5 7 8 7 6 7 7 7 10 12 13 13 12 11 12 10 10 10 8 8 7 8 9 8 6 2 4 6 6 8 6 4 6 4 4 5 5 4 2 1 4 4 3 2 3 3 4 2 2 3 4 3 3 2 3 3 1 4 5 5 4 3 4 4 3 3 2 1 3
23 24 24 25 26 26 27 28 30 33 33 28 20 11 6 5 8 7 4 9 8 7 6 7 7 8 11 14 15 16 13 10 11 11 9 8 8 9 9 8 7 8 6 4 4 3 6 8 6 6 6 2 6 3 3 3 4 1 2 2 2 1 2 3 4 3 2 2 2 1 1 1 3 1 3 3 5 6 4 3 4 3 3 4 3 1 4
23 23 24 25 25 26 26 26 28 30 32 29 15 6 7 6 6 6 6 9 8 7 7 7 7 9 13 14 14 15 11 7 10 13 11 8 8 8 8 9 8 8 7 6 8 9 8 7 6 7 6 3 6 4 4 4 5 3 7 3 2 2 3 3 4 4 2 1 2 1 0 2 2 2 2 0 2 4 4 4 4 2 4 4 3 2 4
22 22 23 25 25 26 27 26 26 26 30 31 17 7 6 6 4 5 5 7 6 7 8 9 8 8 9 10 12 13 10 7 10 13 13 10 10 10 8 10 10 9 9 7 7 10 11 8 6 7 7 2 3 5 6 6 3 10 8 2 2 3 4 4 6 5 3 3 3 1 2 2 2 2 2 2 1 2 3 4 4 3 4 3 2 5 3
22 22 23 24 25 27 27 26 27 25 27 31 19 6 5 5 4 4 2 3 6 7 8 9 8 8 8 6 9 13 12 10 9 11 11 10 11 9 7 9 9 8 8 7 5 8 11 11 10 10 9 3 2 3 5 4 7 9 3 2 1 4 4 4 7 7 6 6 3 2 4 6 5 4 5 5 4 2 3 5 4 5 4 3 2 4 4
22 22 23 24 26 27 27 27 27 26 26 27 17 5 4 5 4 5 7 4 5 5 6 8 8 11 11 6 7 11 12 12 10 10 11 11 11 8 6 9 11 10 9 7 5 8 10 9 10 11 8 2 2 4 6 5 8 5 4 5 3 4 5 5 7 6 7 8 5 4 6 7 8 8 7 5 4 5 5 5 5 4 4 4 2 2 3
21 22 23 24 25 27 28 27 27 26 26 24 14 4 6 7 4 6 9 7 7 7 8 9 10 11 11 6 7 9 10 12 11 7 7 9 11 10 8 9 12 12 10 8 7 7 8 7 6 7 8 2 1 3 5 5 9 5 6 4 3 1 3 6 8 6 7 9 8 6 6 7 8 8 7 7 6 5 6 5 5 5 6 6 4 3 4
21 22 23 24 25 27 28 27 27 27 25 21 13 8 8 7 6 7 8 8 8 8 8 8 8 7 7 6 8 9 10 11 10 8 6 7 9 10 10 11 13 14 14 12 8 3 3 5 2 3 8 5 2 1 6 5 5 6 7 3 4 0 2 3 6 6 7 10 8 7 6 6 6 6 7 7 7 6 6 5 5 5 6 6 5 5 6
21 21 22 23 24 26 27 27 27 27 24 17 10 9 12 12 11 9 7 7 7 7 6 6 6 5 5 6 6 8 10 10 8 7 7 7 7 8 9 9 8 11 11 8 3 5 4 5 3 1 4 7 3 2 4 8 4 4 6 4 5 2 3 4 5 5 7 9 8 7 6 5 6 7 8 8 7 6 5 4 4 4 4 5 5 6 3
21 22 22 23 23 25 26 27 27 25 24 17 7 9 16 16 14 11 8 6 7 8 7 5 5 4 3 5 6 8 11 9 5 5 7 8 9 9 8 6 5 8 8 4 7 9 6 5 6 3 3 9 9 4 6 10 8 3 3 2 3 4 3 5 5 4 7 8 7 5 4 5 6 7 8 10 8 7 6 6 5 5 4 4 5 5 1
21 22 22 22 22 23 24 26 26 25 24 18 8 9 16 15 11 10 7 6 7 8 7 5 4 2 4 7 7 7 9 9 4 4 6 7 7 8 7 5 3 5 6 7 7 9 8 7 6 4 5 10 13 11 11 14 13 6 3 2 4 6 5 6 5 4 7 7 5 4 4 5 3 0 4 8 5 4 5 6 6 6 5 5 6 6 2
20 21 23 23 22 22 23 24 25 24 22 17 9 8 16 18 11 7 6 6 7 8 7 4 1 4 4 6 7 7 8 9 6 5 7 7 8 8 6 5 4 3 6 10 10 11 10 10 9 9 10 12 15 17 16 16 15 11 7 7 7 7 5 6 5 4 6 5 4 4 5 4 1 4 5 4 2 1 3 5 5 5 6 6 8 8 6
20 20 21 23 22 21 22 22 23 22 20 17 11 8 16 21 12 5 6 6 6 9 8 2 7 10 7 6 8 8 9 11 9 7 7 8 9 8 6 4 4 4 7 10 11 10 8 8 8 10 12 13 15 17 18 18 17 15 12 10 8 6 5 5 4 4 5 5 5 6 3 3 5 5 6 4 2 2 2 5 6 6 6 7 8 8 7
19 19 20 21 22 22 22 21 22 22 19 16 12 9 15 21 13 4 6 6 5 9 10 6 10 13 11 9 9 9 8 10 10 8 7 8 8 8 7 5 4 5 6 7 8 7 5 5 5 7 9 9 10 12 14 17 18 18 17 13 10 8 6 5 4 4 5 5 6 5 3 4 6 6 6 3 4 2 1 3 5 6 7 7 7 7 7
19 19 19 19 20 21 21 20 21 22 19 15 11 8 13 21 17 7 6 6 6 7 6 6 9 11 10 10 11 8 6 7 7 7 7 8 7 7 9 7 5 6 6 6 6 5 5 5 5 6 6 7 7 7 9 10 13 17 17 14 12 10 8 6 5 4 5 5 6 6 5 6 4 5 7 5 3 1 2 2 4 6 7 8 8 6 4
19 19 19 19 19 20 21 20 20 22 21 17 12 9 11 19 19 12 7 5 5 5 7 10 11 9 8 9 11 10 6 6 8 6 6 6 6 6 7 5 5 7 7 7 5 5 5 5 6 6 7 8 8 7 7 7 9 11 13 15 15 12 8 7 6 4 4 5 6 5 5 4 2 8 9 7 4 5 3 2 4 3 2 3 3 2 1
18 19 19 19 19 20 20 20 19 20 21 19 14 10 9 15 19 14 7 4 5 5 8 14 12 8 6 7 9 9 6 6 7 6 6 7 6 6 8 8 7 8 10 7 4 5 5 5 7 7 7 8 8 7 7 8 8 7 8 13 15 12 8 6 6 6 6 7 6 5 4 5 3 7 9 7 7 6 1 3 2 3 4 3 3 3 3
17 18 19 19 19 20 20 20 19 19 19 19 15 9 7 12 18 14 6 4 4 3 8 16 13 7 7 8 7 7 7 7 7 6 7 7 6 10 12 10 7 8 8 6 5 5 6 6 7 7 7 8 8 7 6 7 7 6 6 7 8 7 6 6 6 7 7 7 6 5 5 4 3 5 8 8 6 3 4 3 1 5 5 4 3 2 3
16 17 18 18 19 20 20 19 19 19 18 19 15 9 7 10 15 14 8 4 3 3 10 16 13 9 9 9 7 7 8 8 7 6 6 5 7 13 13 8 5 6 7 5 5 5 5 6 7 6 7 8 7 6 6 7 7 8 7 4 3 4 4 5 5 6 7 7 6 6 5 2 3 2 7 7 4 3 2 2 1 3 5 4 4 4 3
16 16 17 18 18 19 19 19 19 19 18 18 16 12 9 8 12 13 9 5 4 5 8 10 11 12 12 10 8 8 8 8 7 7 6 6 9 12 9 3 3 6 6 5 5 4 4 6 6 5 7 7 3 3 5 7 9 9 6 4 3 2 2 3 4 5 6 7 6 5 4 1 1 3 6 4 2 1 2 1 2 0 2 3 4 4 3
15 16 16 17 18 18 19 19 18 18 17 17 15 12 9 8 11 12 10 8 6 4 5 8 12 15 13 11 11 10 9 8 8 7 6 6 8 8 5 4 6 6 4 5 5 3 3 5 5 5 6 5 1 2 5 5 7 8 5 3 2 0 0 2 3 1 1 3 4 3 1 2 2 1 3 2 1 4 4 3 1 1 1 3 4 1 4
14 15 16 16 17 17 18 18 18 18 17 17 16 13 11 11 12 12 12 11 8 7 10 15 17 17 16 14 13 12 10 9 9 8 7 6 6 6 6 6 7 6 4 5 5 4 3 4 4 5 6 5 3 3 5 4 4 5 3 1 2 2 2 2 3 1 1 1 1 1 2 3 5 5 5 5 6 7 6 5 4 3 3 3 4 2 4
13 14 15 15 16 16 17 18 18 17 16 16 16 13 12 13 13 14 14 12 9 10 14 17 15 13 13 11 9 9 9 8 8 8 7 6 5 6 5 5 7 6 5 5 5 5 5 5 5 5 5 5 4 4 4 3 4 4 4 4 5 4 5 1 2 2 4 3 1 1 2 2 4 3 4 5 7 7 7 6 5 4 4 4 4 4 5
13 14 15 15 15 16 16 17 18 17 16 15 14 12 13 14 13 14 13 9 6 6 8 9 7 6 6 4 4 7 8 7 7 7 6 5 5 6 4 6 7 6 6 7 7 6 5 5 5 5 5 5 5 5 4 3 4 4 3 4 4 3 4 1 2 1 2 3 3 3 1 2 4 4 2 5 5 4 4 4 4 4 5 4 4 4 4
13 14 15 16 16 16 16 16 17 17 17 15 13 12 12 12 12 12 10 7 6 5 5 5 5 4 3 3 5 6 6 7 7 8 9 8 7 7 8 9 9 7 7 8 7 5 4 4 5 5 6 5 5 5 4 4 4 4 4 4 3 1 2 3 4 4 4 4 1 1 1 3 4 3 3 2 1 0 1 1 3 4 3 4 5 5 4
14 14 15 16 17 17 17 17 17 17 17 15 14 13 12 11 10 10 9 9 7 4 4 6 5 3 5 7 7 7 7 7 8 9 10 10 9 10 11 10 9 8 7 7 6 5 5 4 5 5 6 5 5 5 5 5 5 5 5 4 1 1 2 4 5 5 6 4 2 5 5 3 5 5 3 2 2 1 1 1 1 1 1 4 5 5 5
14 15 15 16 17 17 17 18 17 18 18 16 14 12 11 10 9 7 7 8 7 3 3 5 6 10 16 17 16 13 9 7 6 6 7 8 9 10 10 8 7 6 6 5 5 5 5 5 5 5 6 6 6 6 6 6 6 6 6 5 3 3 4 4 5 6 5 2 3 4 2 2 4 4 3 3 3 3 3 3 2 2 2 3 4 5 6
14 15 15 16 16 17 18 18 18 18 18 17 14 12 12 11 7 3 4 5 5 4 5 5 7 12 17 15 11 10 7 6 7 8 7 6 7 7 8 7 6 5 5 5 5 4 4 5 5 5 5 4 4 5 6 6 6 6 6 6 5 4 1 1 3 4 2 3 4 3 3 2 3 4 2 2 2 1 2 3 1 2 4 4 4 5 4
16 16 16 16 16 16 17 17 18 18 18 17 15 12 10 4 2 4 4 5 6 6 6 6 7 9 10 10 11 12 11 10 9 9 8 8 8 7 6 6 5 5 5 4 4 4 5 5 5 5 5 4 3 4 5 5 6 6 6 7 6 2 3 3 4 3 2 2 3 3 2 1 3 5 4 4 3 3 4 5 3 0 2 3 4 3 4
17 17 16 16 16 16 16 16 17 17 17 16 14 10 5 4 8 7 6 7 8 7 5 5 5 6 8 11 13 15 14 12 11 10 10 10 9 9 8 6 4 4 4 4 5 5 5 4 4 6 7 7 5 5 5 5 6 6 7 8 6 2 1 2 2 1 1 3 4 5 6 6 5 5 6 6 5 5 6 4 1 2 4 6 6 4 3
18 17 17 17 16 16 15 15 15 16 16 14 10 6 3 3 5 7 9 10 10 7 5 6 6 6 7 9 11 11 11 11 10 10 10 10 10 10 10 7 5 4 4 3 4 5 5 5 5 6 7 5 4 5 6 7 7 8 8 9 6 3 3 3 2 3 3 1 4 6 7 7 7 6 7 8 7 6 7 4 2 3 6 7 7 6 6
19 18 18 17 17 16 15 14 13 14 15 12 10 8 8 9 10 11 11 11 9 7 5 5 5 5 4 5 8 11 11 9 8 7 8 8 8 9 9 8 6 5 5 4 3 3 4 5 5 6 7 5 4 5 7 8 8 8 10 11 9 7 7 6 6 7 6 2 4 7 8 7 7 7 7 8 8 8 8 7 6 8 8 7 8 9 9
19 19 18 17 17 17 15 13 12 13 14 15 13 11 11 12 12 10 7 7 8 8 6 4 5 5 4 5 10 13 11 8 5 5 6 6 6 5 6 6 6 5 6 5 3 2 3 3 4 6 7 6 5 5 6 8 9 10 12 12 10 10 10 8 6 8 9 6 5 6 6 7 9 10 9 9 8 9 10 10 10 11 10 10 11 11 10
20 19 18 17 17 16 14 12 12 12 12 12 8 3 2 4 5 4 5 6 7 8 6 3 4 5 5 5 8 8 6 5 4 4 5 5 6 4 4 4 4 4 6 6 4 3 4 4 4 5 5 4 4 5 7 9 11 11 12 11 10 10 11 11 10 9 9 8 9 8 6 8 10 11 10 9 7 7 10 11 11 12 11 10 9 9 10
20 18 17 17 15 13 11 10 10 10 10 7 2 3 4 5 6 5 6 6 5 5 4 4 5 5 5 6 6 2 1 3 5 5 5 4 4 4 3 3 3 4 5 5 5 5 5 4 4 5 4 4 4 5 6 9 11 12 12 12 12 11 10 10 10 10 9 11 13 10 7 9 12 12 12 11 9 9 9 9 10 11 11 9 8 10 11
18 16 16 15 12 11 12 9 7 7 6 6 7 10 12 11 10 9 8 8 8 6 4 3 5 5 5 6 5 1 1 4 5 4 3 4 3 2 3 4 4 5 4 4 5 6 6 5 5 5 5 6 6 5 6 9 12 14 14 14 12 12 12 12 13 12 11 14 16 14 11 12 13 12 11 12 12 11 11 11 11 11 11 10 10 10 10
15 14 15 15 11 10 9 3 2 2 7 10 14 16 14 10 9 9 8 9 10 8 5 4 6 6 6 6 5 4 4 5 5 3 3 4 4 3 3 5 5 4 4 5 6 6 6 5 6 6 7 7 8 9 10 10 10 11 12 12 11 11 11 12 12 11 11 12 13 13 11 12 12 11 10 12 13 13 13 12 11 9 10 10 8 5 5
14 14 14 13 9 6 3 3 7 11 13 12 12 11 7 4 5 5 5 5 7 7 5 6 7 7 7 7 7 7 7 6 5 5 5 4 4 3 3 4 4 3 4 6 6 5 5 5 5 6 8 9 11 13 13 11 11 11 11 11 10 10 10 10 10 9 9 9 9 9 9 10 11 11 11 12 12 11 10 10 8 6 6 7 3 5 10
15 15 12 9 5 3 5 7 11 15 14 10 8 6 3 3 3 3 3 4 4 5 5 6 7 7 8 8 8 7 7 6 6 6 5 4 4 4 4 4 3 3 5 5 4 5 6 6 5 6 8 9 10 12 12 11 11 10 9 10 11 8 5 5 5 6 6 7 8 9 10 10 11 11 11 11 10 9 8 8 7 4 6 7 6 9 11
13 10 7 5 5 8 11 12 13 13 10 6 4 3 2 3 3 3 3 4 5 4 4 5 6 7 8 9 9 8 8 7 6 6 6 5 3 3 4 4 3 3 5 6 4 3 5 5 5 7 8 8 8 9 10 11 11 10 9 9 8 5 4 5 6 6 6 7 9 10 10 10 9 9 8 9 9 8 6 6 5 7 10 10 8 9 10
11 9 7 8 12 15 16 14 12 8 5 3 2 2 3 3 3 3 3 5 5 4 4 5 6 6 8 9 9 8 8 8 6 5 6 5 3 2 4 5 3 3 5 5 3 3 5 5 6 7 7 7 7 8 8 8 8 7 5 2 2 3 4 4 4 5 6 6 7 7 8 8 8 8 8 8 8 6 5 6 7 8 10 11 10 10 9
10 10 12 14 16 15 13 10 8 5 2 2 2 3 3 3 3 4 4 4 4 4 4 5 7 7 8 8 8 6 6 7 5 4 5 5 4 3 4 4 3 4 5 4 3 4 5 6 7 8 7 7 8 9 7 5 5 5 2 1 2 1 2 3 4 4 5 5 5 5 5 5 5 5 6 7 5 2 5 6 7 9 11 11 12 11 9
11 12 13 13 11 9 7 6 4 3 2 2 2 3 3 4 4 4 4 3 4 4 5 5 5 6 7 7 6 4 4 5 5 4 5 5 4 4 5 5 4 5 4 3 4 6 6 7 8 7 6 7 8 7 4 3 4 3 3 3 2 3 3 3 4 3 3 3 3 3 3 3 3 3 4 5 4 3 5 5 6 8 9 9 11 10 9
10 9 8 7 4 3 3 2 2 3 3 4 3 4 4 4 4 4 4 4 3 4 4 4 5 5 5 5 4 4 4 4 3 3 4 4 4 4 5 5 5 4 4 4 5 6 7 7 7 7 8 8 7 3 2 3 4 3 4 4 5 5 5 4 3 3 2 2 2 3 3 4 4 3 2 3 2 3 5 6 7 8 8 10 10 8 6
6 4 4 3 2 2 2 1 2 3 4 4 5 5 5 5 5 5 4 3 3 4 5 5 5 6 6 5 4 4 4 3 2 3 4 4 5 6 6 5 4 4 5 5 6 7 7 7 7 8 10 10 6 3 4 5 5 4 5 6 6 5 4 4 3 3 3 2 3 3 3 3 4 3 2 1 1 2 3 4 6 7 8 9 9 8 7
4 3 3 3 3 3 2 3 3 3 3 4 5 6 6 6 6 5 5 5 5 6 6 6 6 6 6 4 3 3 3 3 3 4 4 4 5 5 4 4 5 5 6 7 7 8 8 8 8 7 7 7 5 4 6 6 4 4 5 5 5 5 4 4 3 3 2 3 3 3 3 3 3 2 1 2 2 3 3 4 5 6 6 6 6 7 7
4 4 3 3 3 3 3 4 5 4 4 5 6 6 7 6 6 6 6 6 6 7 7 6 6 7 6 4 3 4 3 3 4 4 4 4 4 4 4 4 5 5 6 8 8 8 7 7 7 6 6 6 6 6 6 5 4 4 5 6 5 5 4 5 5 4 3 3 3 3 3 3 2 2 2 2 2 3 4 4 5 5 6 6 6 6 6
3 3 3 3 3 4 4 5 6 6 7 7 7 7 7 7 7 6 5 4 5 7 7 6 5 6 5 4 4 4 4 3 3 4 3 3 3 3 3 4 5 5 6 7 8 8 7 7 7 7 5 5 6 5 5 5 5 5 6 6 6 5 5 6 5 3 2 2 3 3 3 3 3 3 3 4 4 5 6 7 6 6 6 6 7 8 8
4 3 3 3 3 4 5 6 7 7 7 7 8 8 8 8 8 7 5 3 4 6 7 5 4 5 5 4 4 4 4 4 3 3 3 4 4 4 4 5 6 7 7 7 8 7 7 7 8 8 6 5 5 6 6 5 5 5 5 5 5 4 4 4 3 2 1 2 3 4 4 3 3 4 5 5 6 6 7 8 8 8 8 9 9 9 9
5 4 4 5 6 6 7 7 8 8 7 7 7 7 6 6 7 6 6 6 5 5 6 5 4 4 4 4 4 4 5 4 4 3 4 4 4 4 5 7 7 7 6 6 6 6 5 4 6 8 9 7 6 7 7 7 5 3 2 4 5 4 2 2 4 4 2 1 4 5 5 4 5 5 5 4 5 6 7 9 10 11 11 10 10 10 10
4 4 5 7 8 8 7 7 8 8 7 7 7 6 5 6 6 4 5 5 6 6 5 4 4 3 4 5 5 4 4 3 3 5 6 4 3 4 6 8 7 7 6 6 6 6 6 4 2 4 7 7 5 5 7 7 4 3 3 5 7 5 3 3 5 4 1 1 3 6 6 6 7 7 6 5 6 7 8 10 11 11 11 10 10 10 9
4 4 5 6 7 8 8 8 8 8 8 8 8 7 6 7 6 2 2 2 6 6 5 3 3 4 5 5 4 4 4 4 4 6 6 5 4 6 7 7 7 6 7 6 5 4 5 6 4 4 4 5 4 6 7 9 6 3 4 5 6 5 4 3 2 1 2 1 2 2 2 5 8 8 7 7 8 7 5 5 7 9 10 10 10 10 11
Wind_Direction
354 354 354 354 353 351 351 352 354 354 353 353 348 335 308 261 274 273 157 178 207 223 225 219 219 225 233 237 236 236 239 246 254 248 219 210 223 232 225 210 213 238 238 137 28 337 291 255 245 242 240 211 114 105 136 186 230 200 187 148 73 336 277 266 278 291 222 171 91 30 14 15 282 248 308 345 360 3 355 358 338 304 290 307 320 104 110
356 355 355 355 353 352 351 351 354 355 357 358 348 326 312 295 293 291 215 179 202 233 227 220 223 225 233 239 238 236 233 232 247 252 229 207 214 223 235 237 227 242 239 161 140 251 263 261 255 257 266 148 119 147 137 161 233 205 109 68 56 252 268 279 280 291 243 183 93 68 83 312 267 148 75 7 358 352 339 313 273 270 357 352 326 52 101
358 358 357 356 354 354 352 350 352 352 354 357 349 305 305 303 275 266 214 182 204 232 231 233 232 227 231 235 240 241 235 226 241 254 250 231 224 226 235 241 234 240 240 189 175 203 228 256 263 260 257 168 156 186 148 186 241 81 70 15 318 272 311 318 292 305 308 271 314 346 86 320 330 70 83 82 4 347 333 305 270 284 20 356 334 49 95
359 360 359 358 356 356 354 352 351 348 349 352 343 288 292 303 269 257 216 190 210 231 245 257 258 253 244 238 243 245 241 232 230 248 264 260 242 235 232 235 233 232 239 227 202 208 216 228 253 269 263 216 149 182 179 187 121 69 61 6 300 285 297 294 279 289 291 276 300 107 166 286 336 22 302 246 136 329 304 294 300 352 356 329 12 29 34
0 1 2 360 359 359 356 355 353 346 345 348 339 284 270 294 292 318 313 216 219 219 235 246 246 254 257 253 248 239 238 245 230 223 241 259 258 251 241 238 237 231 234 235 233 235 230 221 225 241 250 279 16 200 203 175 105 85 76 201 227 273 266 261 269 274 268 267 273 183 215 264 272 256 260 235 194 225 272 280 310 345 328 294 23 11 319
1 3 4 3 2 1 359 358 356 351 348 345 335 291 297 314 306 355 2 314 252 233 244 256 254 245 240 252 265 243 233 242 239 215 216 238 254 254 246 243 241 236 228 224 234 246 248 239 231 237 240 249 329 247 222 170 126 123 220 197 174 266 272 277 274 266 267 269 264 225 222 246 256 256 266 257 211 211 235 260 288 310 299 297 358 3 304
3 5 7 5 4 3 2 1 0 358 356 351 346 343 347 342 338 352 351 324 293 295 296 296 287 258 242 244 257 254 247 243 243 231 211 226 241 243 247 249 247 245 234 226 230 234 251 260 248 258 264 225 134 273 252 178 140 159 242 215 121 243 267 293 288 273 269 268 261 248 235 236 240 242 256 266 253 238 236 248 268 275 277 292 316 318 296
5 6 9 8 7 6 5 5 4 5 7 5 7 23 12 348 334 337 334 319 302 294 289 291 285 262 249 247 244 249 258 255 254 255 237 234 240 237 241 245 247 253 248 239 239 233 301 306 300 280 283 273 149 234 286 260 166 181 231 201 98 112 267 302 298 291 283 269 251 240 245 251 251 243 240 246 248 249 251 253 264 273 273 278 286 280 271
7 9 12 11 11 9 8 8 7 11 18 16 9 16 5 341 329 331 319 310 309 294 278 274 273 261 245 252 259 253 249 249 261 281 276 265 256 244 250 262 270 273 267 261 306 25 27 322 316 334 292 293 268 188 268 285 259 209 230 186 130 168 272 277 266 266 275 262 234 223 233 240 250 252 244 237 234 233 239 249 256 258 268 281 279 267 268
10 13 14 13 13 12 11 12 10 14 23 23 5 360 360 346 336 334 316 298 304 294 274 250 250 269 278 282 282 269 264 264 276 303 284 260 264 275 287 315 330 297 294 346 10 360 352 318 317 329 300 297 292 252 235 262 266 244 234 212 170 194 246 265 246 248 269 254 216 207 229 235 244 248 232 225 227 224 218 227 240 239 243 260 261 252 191
11 13 13 12 13 13 12 14 13 15 21 20 2 351 358 349 328 326 322 301 298 294 275 245 236 297 322 302 286 274 281 284 282 294 275 258 287 313 320 329 299 279 315 351 346 330 318 297 292 286 270 280 284 275 257 257 262 251 189 196 229 223 238 261 248 243 264 250 196 178 234 245 252 205 183 199 216 236 227 225 224 214 207 224 255 271 281
12 13 12 10 11 12 12 13 14 15 17 15 1 350 358 350 324 314 331 312 306 313 294 252 301 338 317 300 294 289 292 289 283 297 298 301 321 323 319 311 279 284 349 343 329 325 311 282 265 248 239 246 255 259 256 254 257 253 227 216 222 217 227 258 261 253 261 250 199 213 245 241 154 90 109 135 132 319 286 279 265 234 214 217 243 264 279
12 11 10 9 9 10 9 10 12 12 14 14 7 351 0 0 346 324 340 323 316 330 321 350 37 11 350 337 318 303 299 293 283 284 290 292 293 285 275 283 287 318 348 335 320 317 306 287 274 258 247 241 242 246 247 246 248 248 241 233 225 211 216 245 255 254 257 243 219 227 233 165 149 131 109 108 157 181 223 263 261 251 239 225 232 247 250
11 9 8 8 8 9 8 8 9 9 10 13 7 350 1 9 6 335 331 329 317 326 326 355 24 9 353 342 323 307 307 299 282 271 273 270 270 275 277 282 305 333 338 324 306 292 277 272 270 261 250 241 238 240 240 242 242 241 239 235 224 213 216 233 237 238 246 248 241 237 219 194 193 169 141 168 226 204 184 254 250 246 243 227 222 238 239
11 9 8 7 6 7 7 7 7 8 8 10 9 359 2 9 8 343 314 320 314 321 347 15 5 351 341 332 326 322 323 321 306 288 282 274 261 258 261 269 314 340 320 297 284 265 256 250 241 241 241 235 237 239 238 242 242 237 236 236 226 214 211 217 222 227 236 249 257 250 235 231 210 152 149 188 221 149 75 334 270 245 238 224 207 213 237
12 10 9 7 5 4 5 7 7 7 7 8 11 9 0 4 7 353 319 319 314 317 11 19 357 337 331 338 350 356 349 341 336 319 307 302 277 255 260 282 332 332 297 278 272 259 255 250 242 242 239 232 236 239 236 241 241 232 231 235 230 220 216 221 227 232 232 240 252 252 255 270 157 137 156 178 149 101 72 302 270 235 208 220 194 148 351
12 12 9 8 5 2 1 4 5 6 6 6 4 359 354 3 7 357 329 327 324 309 357 7 356 343 349 355 358 359 345 331 334 326 319 318 315 332 340 333 326 299 271 259 259 256 255 252 246 247 242 236 241 246 243 245 247 239 235 236 228 216 214 223 229 235 236 237 246 246 252 270 223 156 163 158 123 107 163 251 286 42 64 60 61 53 356
10 12 9 6 5 2 0 2 5 6 5 3 356 342 342 2 5 1 342 326 324 309 345 352 346 344 1 353 337 340 340 330 330 326 308 305 336 356 342 322 313 302 278 258 247 250 256 255 247 249 252 246 244 247 243 243 246 242 237 244 242 230 223 223 224 232 235 234 244 248 241 261 260 172 156 136 123 160 223 220 5 14 21 31 25 352 329
6 10 9 6 4 3 0 1 6 7 5 3 359 348 344 360 6 8 1 340 331 309 321 331 334 338 350 347 334 341 343 333 333 335 316 316 354 345 319 289 293 316 303 280 259 252 256 256 250 252 252 248 250 257 248 238 238 235 221 215 254 255 237 231 228 233 236 231 235 244 243 290 351 121 134 128 148 214 231 168 109 358 358 356 325 301 299
2 6 7 6 4 2 1 1 5 8 6 4 1 349 342 5 18 16 8 348 326 305 302 317 336 340 337 334 332 336 338 333 336 339 324 327 345 338 318 286 329 334 329 317 294 270 260 259 257 256 253 251 269 322 283 255 247 246 225 182 191 237 236 242 238 232 239 242 243 248 248 285 13 129 122 122 203 267 25 70 159 60 6 332 306 319 357
360 1 3 4 2 1 0 360 1 4 4 4 2 347 335 360 14 8 355 334 312 298 298 313 324 322 315 315 318 314 313 322 334 339 327 323 334 335 322 317 326 332 350 340 311 285 280 281 275 271 269 268 283 346 320 299 272 265 249 169 147 131 292 271 267 246 231 248 247 253 300 19 18 99 108 93 51 44 29 3 338 351 343 299 293 341 68
358 357 359 0 0 359 358 356 358 1 359 1 3 351 334 344 354 348 336 316 285 266 279 289 294 293 288 290 292 286 289 310 325 327 319 314 320 315 299 309 326 339 11 3 328 312 325 319 304 296 294 293 293 315 333 332 295 287 290 236 211 197 188 286 303 295 236 264 2 5 8 43 41 43 59 56 42 40 29 10 5 351 339 327 311 346 74
355 355 356 356 356 356 356 353 354 356 356 358 2 354 332 326 332 337 332 316 288 279 281 280 277 273 272 275 276 273 283 297 305 316 323 324 323 307 298 339 353 342 0 18 352 328 331 328 317 310 304 302 305 313 316 291 274 296 313 281 244 186 154 189 298 274 265 258 154 116 312 1 22 26 64 64 42 29 21 20 27 17 9 19 5 2 26
352 351 351 352 353 352 352 351 350 351 352 352 352 343 320 311 321 336 336 325 317 315 298 283 278 279 286 297 284 274 280 288 304 322 322 312 308 294 303 7 5 332 336 355 340 318 316 315 306 298 296 303 306 297 289 279 283 298 301 270 247 138 107 173 221 219 294 272 170 162 176 33 9 339 15 55 40 19 1 9 41 48 35 38 32 11 9
348 348 346 346 348 348 348 348 347 346 347 347 345 338 322 316 333 346 337 321 321 324 311 300 291 286 304 296 258 254 266 278 296 305 291 280 283 284 302 336 339 316 315 324 312 301 306 309 303 294 292 305 311 293 278 282 289 295 302 294 281 5 2 291 240 219 235 242 249 337 47 92 69 27 5 23 36 182 227 67 74 76 74 66 49 32 29
343 343 342 342 343 344 345 345 343 342 342 341 339 331 316 311 326 335 331 327 320 291 273 283 281 311 344 320 291 285 278 265 274 290 284 278 281 285 295 311 312 301 301 300 293 296 297 289 292 292 288 297 311 303 292 296 299 289 287 296 295 208 298 307 293 276 258 242 333 359 351 20 53 55 51 50 66 76 53 55 75 88 95 87 71 51 44
340 337 337 338 338 339 340 341 340 340 338 335 333 324 304 297 308 324 341 342 329 295 276 288 304 330 330 317 303 297 284 253 247 263 269 274 283 289 294 299 301 303 303 294 291 293 284 274 276 277 278 289 297 293 285 291 297 286 269 266 258 250 279 316 310 287 280 314 33 36 21 347 2 22 53 57 44 28 2 1 49 74 61 66 71 64 61
342 337 333 331 332 333 335 337 339 338 335 335 334 318 290 278 286 323 6 354 329 311 312 307 305 311 312 310 307 302 288 258 242 238 242 263 275 280 286 291 294 298 300 302 305 296 281 282 284 278 286 302 301 292 290 285 280 274 265 262 257 243 232 330 292 278 302 15 28 58 119 167 272 285 287 323 340 342 323 313 323 82 74 56 44 39 36
340 337 332 329 327 326 328 332 335 336 336 338 333 311 281 260 71 68 55 18 343 314 303 302 295 293 304 321 323 307 293 283 268 251 245 251 249 246 255 268 277 288 295 299 298 288 278 281 284 287 299 316 312 295 295 285 268 263 269 271 267 214 148 187 246 267 308 5 5 0 1 267 238 246 257 267 272 272 274 276 278 353 47 24 14 2 352
337 335 332 330 325 322 324 326 330 335 338 338 329 302 260 111 72 58 46 18 348 319 303 305 295 292 308 312 301 288 284 283 274 260 254 254 247 236 229 224 232 262 279 278 275 280 282 276 276 280 286 294 294 274 267 268 265 264 267 266 263 249 209 237 249 251 291 334 346 333 316 306 292 284 280 273 271 283 285 287 10 8 320 314 310 290 278
334 332 329 328 326 323 320 319 324 333 334 331 325 303 246 107 46 14 6 359 337 310 297 298 291 292 297 288 279 278 279 275 270 264 260 264 267 255 236 217 206 215 232 256 267 272 279 281 281 279 283 300 312 279 265 265 261 258 262 264 262 259 253 238 188 185 205 303 343 320 302 294 288 284 282 279 286 297 292 279 239 240 250 260 270 260 241
331 329 327 326 325 322 319 317 320 325 321 311 300 291 287 294 306 316 332 339 322 299 294 299 297 300 296 291 303 307 293 272 265 268 259 253 259 254 235 218 214 212 207 220 251 258 265 276 279 277 286 314 330 292 269 262 258 262 271 275 276 278 270 245 220 227 234 269 330 316 309 300 292 295 301 300 302 301 290 277 270 262 250 249 267 271 254
328 326 324 323 322 320 317 313 311 309 303 295 289 285 286 292 295 299 317 322 299 286 290 297 294 291 290 310 318 309 290 264 246 253 250 235 233 247 237 216 213 208 194 197 220 233 228 243 260 266 274 289 299 285 268 261 266 274 278 278 286 302 309 311 290 264 259 255 257 266 286 298 297 295 294 293 297 301 298 294 291 289 284 279 280 281 274
324 325 323 320 319 316 310 307 308 304 293 284 282 293 321 310 304 306 312 299 281 277 275 267 279 288 287 295 300 289 269 261 263 266 262 225 198 218 263 242 213 202 193 195 215 231 223 229 246 254 263 271 270 265 259 258 265 274 278 282 296 312 321 328 322 300 287 280 270 265 281 301 299 287 273 264 265 283 293 293 289 285 282 278 282 285 280
324 326 322 318 315 312 307 298 289 286 282 275 282 43 2 316 302 298 293 280 266 264 257 241 257 278 283 289 296 290 187 261 271 269 275 253 193 197 269 276 244 223 202 193 212 236 235 227 227 235 242 241 237 244 253 257 262 268 272 280 294 303 305 308 307 307 312 308 299 293 291 292 295 298 297 292 288 285 286 288 289 290 290 290 295 295 288
326 325 321 317 310 301 296 282 247 246 282 313 331 330 318 305 295 285 272 257 250 258 275 267 255 262 271 279 288 298 220 258 264 258 267 277 266 250 263 265 259 250 224 206 220 237 238 226 224 236 240 232 230 241 251 254 257 261 263 267 276 284 288 289 292 296 298 296 295 295 291 287 291 300 305 303 299 291 279 274 278 286 290 290 289 288 289
326 322 318 315 302 282 280 280 122 360 330 328 323 315 306 293 278 264 249 239 233 234 252 272 260 260 273 278 283 301 300 285 283 277 250 246 251 250 241 246 252 254 247 239 236 241 244 237 233 241 245 244 249 252 249 246 247 251 258 262 261 263 268 270 271 273 275 279 287 293 294 293 295 294 288 286 287 287 283 280 282 285 288 291 297 316 3
322 317 310 302 291 281 292 29 22 350 332 324 316 306 288 245 237 236 224 224 220 212 222 249 254 257 268 270 273 289 299 296 290 284 270 258 256 246 235 248 255 255 262 260 245 234 239 240 238 247 251 250 252 254 254 253 247 236 235 240 240 242 249 254 257 264 270 276 286 292 290 290 290 288 286 285 285 290 298 299 295 295 298 302 323 74 73
310 303 290 274 275 336 2 353 345 339 329 314 296 282 248 212 234 239 217 211 215 212 220 234 240 248 258 261 261 259 259 267 282 286 283 283 279 256 233 233 228 224 248 258 241 222 230 230 227 240 250 252 254 253 255 262 262 253 244 246 249 251 264 288 307 320 317 303 298 296 289 285 286 289 293 295 292 296 307 308 308 350 35 32 55 90 94
316 308 299 294 330 353 346 333 328 325 314 293 271 262 257 247 245 247 241 230 228 225 224 230 236 239 242 251 262 259 243 241 258 269 264 264 281 286 265 254 238 230 245 249 234 230 251 254 245 243 246 248 251 249 247 252 259 258 256 261 273 304 345 341 327 322 312 301 298 293 289 294 305 313 316 314 310 316 342 354 2 52 73 72 78 98 106
342 342 333 323 324 326 321 312 303 293 283 285 281 260 255 252 242 244 256 251 246 239 224 231 246 247 234 234 246 257 258 258 263 268 266 267 285 305 285 277 276 264 262 264 261 253 257 259 258 257 255 256 263 267 264 261 263 260 248 250 345 5 353 326 310 303 299 298 301 301 306 324 339 338 332 325 320 333 33 51 51 70 85 86 85 91 99
327 321 311 304 303 303 298 287 273 255 246 273 274 253 246 246 245 243 242 245 256 265 247 235 244 251 249 245 240 236 247 259 259 251 255 263 265 266 267 269 265 256 260 278 292 273 258 252 251 254 257 264 273 280 284 282 281 282 286 72 66 8 292 291 292 288 289 297 307 315 330 347 350 340 332 326 325 17 87 88 85 87 88 86 84 81 80
310 304 299 292 287 286 283 271 251 229 217 222 234 249 251 245 242 246 244 241 249 260 264 264 264 261 261 265 263 253 259 272 273 259 253 255 260 259 254 248 249 257 268 282 273 261 257 255 255 257 261 261 260 264 269 263 255 240 206 179 185 205 225 251 271 281 296 313 317 321 328 329 330 344 349 344 349 75 97 94 99 103 99 92 88 84 77
311 299 288 284 283 284 281 255 196 189 216 221 214 228 243 242 236 243 251 253 255 256 264 280 292 288 284 287 288 275 268 268 265 257 253 251 253 256 250 245 248 261 271 270 261 255 253 255 259 265 269 266 261 260 273 266 250 216 190 190 196 204 217 234 254 271 276 281 293 309 315 310 303 302 330 356 28 93 97 84 85 96 100 96 94 95 99
301 285 271 284 296 282 266 242 180 191 226 236 230 234 249 256 255 256 260 269 280 284 288 293 292 290 294 301 298 280 268 256 233 240 255 255 246 242 245 250 255 257 256 254 254 254 256 258 261 263 265 268 268 246 222 230 233 222 211 206 202 209 224 234 240 254 271 287 308 312 308 305 300 286 266 245 184 167 149 124 114 113 113 115 118 122 127
272 274 267 269 266 250 245 253 241 227 232 239 238 241 250 259 268 283 300 305 294 288 292 298 293 283 280 285 282 274 272 265 251 242 245 251 251 252 255 257 253 252 253 252 251 252 256 260 264 272 284 297 297 258 227 223 227 230 232 227 213 210 228 245 244 245 262 280 292 296 299 311 322 304 218 200 207 202 178 155 144 141 144 150 151 143 137
246 259 259 261 263 249 238 244 252 257 266 269 266 267 274 280 286 295 305 308 302 293 290 290 285 278 273 271 270 267 265 265 263 255 243 243 253 263 267 258 248 244 247 250 253 258 263 267 275 292 314 318 295 254 228 219 217 217 230 241 232 216 221 241 245 240 250 272 286 294 292 287 278 244 202 196 199 186 174 170 170 168 168 167 157 150 153
243 245 236 239 249 247 246 255 264 265 264 265 267 271 275 277 275 273 272 275 280 283 288 294 295 289 282 271 263 261 255 248 255 259 251 245 249 255 255 252 249 244 245 249 253 258 263 275 289 303 315 313 299 277 244 225 222 221 226 238 244 242 240 246 250 255 266 274 274 269 266 267 264 242 215 201 202 203 198 190 181 174 174 176 173 176 188
260 268 249 238 246 259 266 271 273 271 268 268 268 267 266 265 265 268 276 284 287 294 305 313 305 291 287 285 279 272 258 241 238 245 243 238 236 233 232 237 242 243 244 249 259 268 283 304 313 307 291 272 270 269 257 240 236 237 236 238 245 252 256 261 263 257 245 261 269 264 254 253 264 258 234 215 214 217 211 202 199 200 202 205 208 210 213
241 251 249 242 247 259 268 271 273 273 271 269 269 271 275 278 283 302 332 339 318 303 303 297 280 272 278 279 275 269 258 243 232 235 240 241 243 243 241 241 245 250 255 262 274 290 305 324 334 326 311 289 267 263 261 249 226 209 235 256 251 237 220 264 269 253 227 300 295 274 253 244 253 257 247 233 230 226 214 206 207 211 215 219 226 230 227
224 235 244 243 246 256 267 273 276 277 278 280 285 291 300 298 297 325 1 340 303 285 282 285 283 279 272 261 254 260 270 263 239 234 236 235 232 240 244 245 249 261 278 295 314 323 314 297 316 346 327 315 320 329 312 288 253 189 196 240 247 231 189 208 257 260 198 146 244 257 266 281 283 277 272 264 251 238 227 218 214 214 217 221 228 238 245
223 235 244 242 242 249 256 263 268 272 273 277 279 281 286 287 280 240 153 271 286 286 289 294 287 273 269 267 266 274 284 281 263 254 250 242 234 242 252 262 276 293 306 315 327 339 327 315 327 347 334 327 351 352 320 296 280 245 216 232 248 249 218 193 208 7 52 85 224 246 318 315 296 291 303 310 296 275 246 219 220 227 230 229 229 234 240